Weather History for VMMC - April, 2014

Change the Weather History Date:

Friday, April 11, 2014

  Actual Average Record
Temperature  
Mean Temperature 72 °F -  
Max Temperature 76 °F 76 °F 82 °F (2006)
Min Temperature 68 °F 70 °F 57 °F (2001)
Cooling Degree Days 7    
Growing Degree Days 22 (Base 50)    
Moisture  
Dew Point 69 °F    
Average Humidity 87    
Maximum Humidity 95    
Minimum Humidity 74    
Precipitation  
Precipitation 0.00 in - - ()
Sea Level Pressure  
Sea Level Pressure 29.92 in    
Wind  
Wind Speed 7 mph ()    
Max Wind Speed 17 mph    
Max Gust Speed -    
Visibility 3.9 miles    
Events      
Averages and records for this station are not official NWS values.
T = Trace of Precipitation, MM = Missing Value Source: Averaged Metar Reports

Daily Weather History Graph

Daily Weather History Graph

Search for Another Location

Airport or City:

Trip Planner

Search our weather history database for the weather conditions in past years. The results will help you decide how hot, cold, wet, or windy it might be!

Date:

Astronomy

Apr. 11, 2014 Rise Set
Actual Time 6:09 AM CST 6:44 PM CST
Civil Twilight 5:47 AM CST 7:06 PM CST
Nautical Twilight 5:20 AM CST 7:33 PM CST
Astronomical Twilight 4:53 AM CST 8:00 PM CST
Moon 3:18 PM CST (4/11) 3:18 AM CST (4/11)
Length of Visible Light 13h 19m
Length of Day
12h 34m
Waxing Gibbous, 83% of the Moon is Illuminated
Apr 11
Waxing Gibbous
Apr 15
Full
Apr 22
Last Quarter
Apr 29
New
May 7
First Quarter

Hourly Weather History & Observations

Time (CST) Temp. Dew Point Humidity Pressure Visibility Wind Dir Wind Speed Gust Speed Precip Events Conditions
12:00 AM 71.6 °F 68.0 °F 88% 29.98 in 5.6 mi East 9.2 mph - N/A   Partly Cloudy
12:30 AM 71.6 °F 68.0 °F 88% 29.95 in 5.0 mi East 8.1 mph - N/A   Partly Cloudy
1:00 AM 71.6 °F 68.0 °F 88% 29.95 in 5.0 mi East 6.9 mph - N/A   Partly Cloudy
1:30 AM 71.6 °F 68.0 °F 88% 29.95 in 5.0 mi East 6.9 mph - N/A   Partly Cloudy
2:00 AM 69 °F 67 °F 89% 29.96 in 6 mi ESE 5.8 mph - -  
2:00 AM 71.6 °F 68.0 °F 88% 29.92 in 5.0 mi East 3.5 mph - N/A   Partly Cloudy
2:30 AM 71.6 °F 68.0 °F 88% 29.92 in 5.0 mi ENE 4.6 mph - N/A   Scattered Clouds
3:00 AM 71.6 °F 68.0 °F 88% 29.92 in 5.0 mi Variable 4.6 mph - N/A   Scattered Clouds
3:30 AM 71.6 °F 68.0 °F 88% 29.92 in 5.0 mi ENE 9.2 mph - N/A   Scattered Clouds
4:00 AM 71.6 °F 68.0 °F 88% 29.92 in 4.3 mi NE 4.6 mph - N/A   Scattered Clouds
4:30 AM 71.6 °F 68.0 °F 88% 29.92 in 4.3 mi NNE 3.5 mph - N/A   Scattered Clouds
5:00 AM 70 °F 67 °F 89% 29.94 in 5 mi East 6.9 mph - -  
5:00 AM 71.6 °F 69.8 °F 94% 29.92 in 4.3 mi North 3.5 mph - N/A   Scattered Clouds
5:30 AM 71.6 °F 69.8 °F 94% 29.92 in 5.0 mi ENE 4.6 mph - N/A   Scattered Clouds
6:00 AM 71.6 °F 69.8 °F 94% 29.95 in 4.3 mi East 5.8 mph - N/A   Scattered Clouds
6:30 AM 71.6 °F 69.8 °F 94% 29.95 in 3.1 mi ENE 8.1 mph - N/A   Scattered Clouds
7:00 AM 71.6 °F 69.8 °F 94% 29.95 in 2.8 mi ENE 4.6 mph - N/A   Scattered Clouds
7:30 AM 71.6 °F 69.8 °F 94% 29.95 in 2.5 mi ESE 9.2 mph - N/A   Scattered Clouds
8:00 AM 69 °F 68 °F 95% 29.99 in 2 mi SE 5.8 mph - -   Mist
8:00 AM 71.6 °F 68.0 °F 88% 29.95 in 2.2 mi East 11.5 mph - N/A   Scattered Clouds
8:30 AM 71.6 °F 68.0 °F 88% 29.98 in - East 9.2 mph - N/A   Scattered Clouds
9:00 AM 73.4 °F 68.0 °F 83% 29.98 in 3.7 mi East 8.1 mph - N/A   Scattered Clouds
9:30 AM 71.6 °F 68.0 °F 88% 29.98 in 3.7 mi ESE 12.7 mph - N/A   Scattered Clouds
10:00 AM 73.4 °F 68.0 °F 83% 29.98 in 3.7 mi ESE 15.0 mph - N/A   Scattered Clouds
10:30 AM 73.4 °F 68.0 °F 83% 29.98 in 3.7 mi East 12.7 mph - N/A   Scattered Clouds
11:00 AM 72 °F 68 °F 83% 30.00 in 4 mi ESE 6.9 mph - -   Clear
11:00 AM 75.2 °F 69.8 °F 83% 29.98 in 3.7 mi East 9.2 mph - N/A   Scattered Clouds
11:30 AM 73.4 °F 68.0 °F 83% 29.98 in 3.7 mi ESE 9.2 mph - N/A   Scattered Clouds
12:00 PM 73.4 °F 68.0 °F 83% 29.95 in 3.7 mi ESE 6.9 mph - N/A   Scattered Clouds
12:30 PM 75.2 °F 69.8 °F 83% 29.95 in 3.7 mi East 5.8 mph - N/A   Partly Cloudy
1:00 PM 75.2 °F 69.8 °F 83% 29.92 in 3.7 mi ESE 4.6 mph - N/A   Partly Cloudy
1:30 PM 75.2 °F 69.8 °F 83% 29.92 in 3.1 mi SE 6.9 mph - N/A   Partly Cloudy
2:00 PM 76 °F 69 °F 74% 29.92 in 5 mi ESE 6.9 mph - -  
2:00 PM 75.2 °F 69.8 °F 83% 29.89 in 3.1 mi ESE 8.1 mph - N/A   Partly Cloudy
2:30 PM 75.2 °F 69.8 °F 83% 29.89 in 3.1 mi ESE 6.9 mph - N/A   Partly Cloudy
3:00 PM 75.2 °F 69.8 °F 83% 29.89 in 3.1 mi ESE 5.8 mph - N/A   Partly Cloudy
3:30 PM 75.2 °F 69.8 °F 83% 29.86 in 3.1 mi SE 6.9 mph - N/A   Partly Cloudy
4:00 PM 75.2 °F 69.8 °F 83% 29.86 in 3.1 mi SE 8.1 mph - N/A   Partly Cloudy
4:30 PM 73.4 °F 69.8 °F 88% 29.86 in 2.8 mi SE 8.1 mph - N/A   Scattered Clouds
5:00 PM 73 °F 69 °F 82% 29.88 in 4 mi ESE 5.8 mph - -  
5:00 PM 73.4 °F 69.8 °F 88% 29.86 in 2.8 mi SE 10.4 mph - N/A   Scattered Clouds
5:30 PM 73.4 °F 69.8 °F 88% 29.86 in 2.8 mi ESE 9.2 mph - N/A   Scattered Clouds
6:00 PM 73.4 °F 69.8 °F 88% 29.86 in 2.8 mi ESE 10.4 mph - N/A   Scattered Clouds
6:30 PM 73.4 °F 69.8 °F 88% 29.86 in 2.8 mi ESE 10.4 mph - N/A   Scattered Clouds
7:00 PM 73.4 °F 69.8 °F 88% 29.86 in 3.7 mi East 8.1 mph - N/A   Scattered Clouds
7:30 PM 73.4 °F 69.8 °F 88% 29.86 in 4.3 mi ESE 10.4 mph - N/A   Scattered Clouds
8:00 PM 71 °F 68 °F 87% 29.91 in 5 mi ESE 5.8 mph - -  
8:00 PM 71.6 °F 69.8 °F 94% 29.86 in 4.3 mi East 13.8 mph - N/A   Scattered Clouds
8:30 PM 73.4 °F 69.8 °F 88% 29.89 in 3.7 mi East 11.5 mph - N/A   Scattered Clouds
9:00 PM 73.4 °F 69.8 °F 88% 29.89 in 3.7 mi ESE 12.7 mph - N/A   Scattered Clouds
9:30 PM 71.6 °F 69.8 °F 94% 29.89 in 4.3 mi ESE 12.7 mph - N/A   Scattered Clouds
10:00 PM 73.4 °F 69.8 °F 88% 29.92 in 3.7 mi East 11.5 mph - N/A   Scattered Clouds
10:30 PM 73.4 °F 69.8 °F 88% 29.89 in 3.7 mi East 17.3 mph - N/A   Scattered Clouds
11:00 PM 71 °F 69 °F 92% 29.95 in 4 mi SE 4.6 mph - -  
11:00 PM 73.4 °F 69.8 °F 88% 29.92 in 3.7 mi East 12.7 mph - N/A   Scattered Clouds
11:30 PM 71.6 °F 69.8 °F 94% 29.92 in 3.7 mi East 11.5 mph - N/A   Scattered Clouds